Dewpoint
5 5 8 11 12 12 13 14 14 12 11 6 4 3 3 -0 -3 -1 -1 1 -0 0 -5 -1 2 2 1 3 3 2 3 3 3 2 3 3 2 1 0 1 1 -0 -0
9 8 9 11 13 13 13 14 13 8 5 4 3 3 3 -2 -1 -2 2 2 2 -6 -5 -3 -2 0 1 3 2 -2 1 1 3 3 3 2 1 1 0 1 0 1 1
7 8 9 10 12 12 13 11 8 6 3 3 3 2 -2 -1 -1 2 2 2 -6 -6 -5 -2 1 2 1 -1 -1 1 2 2 2 2 2 1 1 1 1 0 -0 -0 1
8 9 11 10 9 11 12 8 6 4 4 4 3 -0 -3 0 2 3 2 -3 -5 -6 -3 0 1 0 -2 1 -1 0 1 2 2 1 1 -1 -0 0 -0 -1 -0 -0 1
7 8 9 11 10 10 11 9 6 5 5 5 3 -3 0 2 2 2 -0 -8 -5 -4 -4 -4 -0 -1 -1 0 1 1 2 1 1 1 1 1 -0 -1 -1 -1 -1 -0 1
5 6 6 10 10 9 8 7 6 6 6 5 -2 -0 2 2 2 -0 -6 -4 -3 -3 -2 0 -1 -1 -1 -0 0 2 1 1 2 1 -0 0 -1 -2 -1 -1 -1 -0 -0
3 5 6 9 8 7 7 7 7 6 6 1 -2 2 2 1 -0 -4 -3 -4 -3 -3 -2 -1 -1 -1 -0 -1 -0 2 1 1 1 -0 -0 -1 -2 -2 -1 -2 -1 -1 -0
4 4 6 8 7 7 7 6 6 5 4 -3 0 1 0 -3 -6 -4 -5 -4 -5 -3 -2 -2 -1 -1 1 1 1 1 1 1 0 -1 -1 -1 -2 -2 -2 -2 -2 -2 -1
2 4 6 6 6 6 5 5 5 3 -2 -1 -1 -1 -4 -8 -5 -3 -4 -5 -4 -2 -2 -2 -1 -1 -1 1 1 1 1 0 -1 -1 -2 -2 -2 -2 -2 -3 -3 -2 -2
-2 3 6 6 5 4 5 5 1 -1 -1 -1 -1 -9 -7 -4 -5 -5 -4 -4 -3 -2 -2 -1 -1 -1 -1 -0 -0 -0 -0 -1 -1 -2 -1 -2 -2 -3 -3 -3 -3 -3 -3
1 4 5 5 4 4 3 -0 -1 -1 -1 -3 -7 -7 -6 -7 -2 -2 -4 -4 -3 -3 -2 -2 -1 -1 -1 -1 -1 -1 -0 -1 -1 -2 -2 -3 -3 -4 -4 -4 -4 -3 -3
3 4 4 2 -0 -2 -1 -0 -1 -1 -5 -5 -4 -5 -5 -2 -2 -1 -3 -3 -3 -2 -2 -1 -2 -2 -1 -1 -1 -0 -1 -1 -2 -1 -2 -3 -4 -5 -5 -5 -4 -4 -3
3 2 -1 -1 -1 -1 -1 -2 -2 -4 -0 -3 -5 -4 -0 -0 -1 -1 -3 -3 -2 -2 -2 -2 -2 -1 -0 -0 -0 -1 -1 -2 -2 -2 -2 -3 -4 -5 -5 -5 -4 -4 -3
-0 -1 -1 -1 -1 -1 -2 -5 -3 -2 -4 -2 -3 -1 -0 -1 -1 -3 -3 -3 -2 -2 -2 -2 -2 -2 -1 -1 -1 -1 -2 -2 -2 -2 -3 -3 -4 -5 -5 -5 -5 -4 -4
-0 -0 -0 -0 -2 -5 -5 -3 -2 -1 -2 -5 -2 -0 -0 -1 -2 -3 -4 -3 -3 -3 -2 -2 -2 -2 -2 -1 -2 -2 -2 -3 -3 -2 -3 -4 -5 -5 -5 -5 -5 -4 -4
-1 -2 -3 -4 -2 -2 -1 -1 -0 -2 -4 -3 -2 -2 -2 -1 -2 -3 -4 -4 -4 -3 -2 -3 -2 -3 -3 -2 -2 -2 -2 -3 -3 -3 -3 -4 -4 -5 -5 -4 -5 -5 -5
-1 -1 -0 0 -0 -0 0 -1 -2 -2 -2 -2 -2 -1 -2 -1 -3 -3 -4 -4 -4 -4 -4 -3 -4 -3 -3 -3 -3 -3 -3 -3 -3 -3 -3 -4 -4 -5 -5 -4 -4 -5 -4
-0 -1 -1 -0 -0 -1 -2 -3 -3 -2 -2 -2 -1 -1 -1 -2 -3 -3 -4 -4 -4 -4 -4 -4 -4 -4 -4 -4 -3 -4 -3 -3 -3 -4 -4 -4 -4 -4 -5 -5 -4 -5 -4
-1 -1 -2 -2 -3 -4 -4 -4 -3 -3 -3 -2 -2 -1 -1 -2 -2 -4 -5 -5 -4 -4 -4 -5 -5 -4 -5 -4 -4 -4 -4 -3 -3 -3 -4 -4 -4 -5 -5 -5 -4 -4 -4
-3 -4 -4 -4 -4 -5 -4 -4 -3 -3 -3 -2 -2 -2 -2 -2 -2 -2 -4 -5 -5 -4 -5 -5 -5 -5 -5 -4 -4 -4 -4 -4 -4 -3 -3 -4 -4 -5 -5 -5 -5 -5 -5
-4 -4 -4 -4 -5 -5 -4 -4 -3 -3 -3 -3 -3 -2 -3 -2 -2 -3 -3 -4 -4 -5 -4 -5 -5 -5 -5 -4 -5 -4 -4 -4 -4 -4 -4 -4 -4 -4 -5 -5 -5 -5 -5
-5 -5 -5 -5 -6 -5 -5 -5 -4 -4 -4 -4 -3 -3 -3 -3 -3 -4 -4 -4 -4 -4 -4 -5 -5 -5 -5 -5 -5 -5 -4 -4 -4 -4 -4 -4 -4 -4 -5 -5 -5 -5 -5
-6 -6 -6 -6 -6 -6 -6 -5 -5 -5 -4 -4 -4 -4 -4 -4 -4 -4 -5 -4 -5 -5 -5 -5 -5 -5 -5 -5 -5 -5 -5 -4 -4 -4 -4 -4 -4 -5 -5 -5 -5 -5 -5
-6 -6 -6 -7 -7 -7 -7 -7 -6 -6 -5 -5 -4 -4 -4 -4 -5 -5 -5 -5 -5 -6 -6 -6 -6 -5 -5 -5 -5 -5 -5 -5 -5 -5 -5 -5 -5 -5 -5 -5 -5 -5 -5
-6 -6 -6 -6 -7 -9 -8 -8 -7 -6 -5 -5 -5 -5 -5 -5 -6 -5 -6 -5 -5 -6 -6 -6 -5 -5 -5 -6 -5 -5 -5 -5 -5 -5 -5 -5 -5 -5 -5 -5 -5 -5 -5
-7 -7 -9 -10 -8 -8 -9 -8 -8 -7 -6 -5 -5 -5 -6 -6 -6 -7 -6 -6 -6 -6 -7 -6 -6 -6 -6 -6 -5 -5 -5 -5 -5 -5 -5 -5 -6 -6 -6 -5 -5 -5 -5
Wind_Speed
20 19 23 23 23 29 33 30 34 34 28 25 27 28 25 21 17 15 13 22 22 29 28 26 26 27 28 28 30 28 27 27 30 31 29 19 20 18 22 22 25 25 24
19 19 20 18 25 28 31 31 30 26 28 33 31 29 26 22 16 12 21 29 34 28 28 28 30 30 28 26 26 27 26 29 26 26 25 25 20 22 22 24 22 22 21
25 23 21 20 26 29 30 28 28 33 36 34 31 27 23 16 14 20 27 29 32 30 29 29 29 28 28 27 21 25 27 29 25 19 19 17 24 26 26 26 23 20 21
26 25 26 24 24 29 31 30 33 35 33 31 27 24 18 14 19 23 30 33 31 29 28 28 29 29 25 22 21 24 21 18 18 19 21 25 27 26 25 21 18 22 17
30 27 30 31 30 31 33 32 32 32 31 27 26 22 13 17 19 32 32 31 28 27 25 23 20 19 17 18 18 17 18 21 15 19 22 24 26 24 19 17 18 20 25
25 27 31 30 30 33 34 34 33 32 30 28 27 16 16 18 23 25 30 28 24 24 22 18 19 17 15 18 17 18 18 17 20 19 23 24 23 15 14 13 21 25 29
17 21 30 33 32 34 35 33 32 31 32 30 22 15 15 17 22 28 29 25 22 21 20 20 21 15 14 15 16 18 17 21 18 19 22 22 16 13 11 13 21 28 32
17 20 27 34 34 35 34 32 30 33 31 27 16 15 14 17 29 28 22 19 19 21 20 16 16 15 13 14 17 21 20 18 16 19 20 15 16 14 11 11 24 34 34
19 23 28 33 34 31 31 30 32 29 25 21 13 16 15 23 23 21 21 20 17 17 19 18 16 16 13 13 16 17 17 15 17 17 12 13 13 14 13 15 28 36 35
20 24 28 29 29 29 28 29 27 24 20 16 18 16 17 20 23 22 20 18 18 18 19 18 18 15 12 13 13 13 14 14 15 10 10 12 11 12 11 13 24 37 39
21 25 24 23 25 25 25 26 25 21 16 16 14 15 19 24 23 21 19 18 19 19 16 14 15 14 15 15 15 15 15 15 12 8 9 8 8 8 10 16 23 35 38
22 21 22 23 22 21 24 25 22 18 17 13 14 21 25 24 20 19 18 17 17 16 13 12 12 13 13 14 15 16 16 14 10 9 7 7 8 10 14 19 27 32 34
21 24 29 29 27 27 25 22 17 16 14 14 20 24 20 21 20 19 17 14 15 13 12 12 16 14 10 11 13 16 14 11 11 10 8 8 10 13 16 18 25 28 29
22 26 28 28 27 22 17 14 13 13 15 25 28 23 22 20 18 13 11 11 13 13 12 14 15 12 11 11 12 14 13 10 10 10 9 11 14 16 19 19 25 25 25
19 21 21 19 17 15 12 9 12 17 25 24 22 20 22 19 14 11 11 9 11 12 12 10 10 8 10 13 16 14 14 12 12 12 12 15 19 23 20 20 21 22 23
19 15 14 13 12 9 8 16 20 20 24 21 20 20 18 16 14 11 10 10 9 9 9 7 8 8 8 11 16 16 16 13 12 13 15 18 23 27 27 24 21 23 24
16 14 13 12 10 12 17 17 22 22 21 19 19 17 16 15 11 10 10 9 9 5 5 6 7 7 8 10 14 15 16 13 10 13 17 20 24 27 31 30 26 26 24
13 12 9 11 16 17 17 19 19 17 17 15 14 15 15 14 11 10 9 8 7 6 6 6 7 7 8 10 12 14 15 14 14 14 16 20 24 26 30 32 32 30 26
12 12 12 12 11 12 15 15 16 15 14 14 14 16 16 15 13 11 8 7 8 5 4 7 6 6 8 9 12 13 15 15 15 16 16 18 23 27 30 32 33 32 28
7 9 9 9 11 12 10 10 10 12 13 13 13 15 13 15 15 12 10 8 7 6 6 6 5 6 7 8 9 12 15 17 16 16 15 16 20 24 30 33 34 35 33
6 7 7 8 9 8 7 9 7 8 10 9 9 10 14 15 13 12 11 9 8 7 7 6 7 7 6 7 10 11 13 16 16 16 16 15 17 21 25 29 33 35 36
7 8 7 5 6 7 6 8 10 8 7 9 7 8 10 12 12 11 9 8 8 8 7 8 7 7 6 6 8 11 14 15 16 16 15 15 16 18 20 24 27 32 34
4 6 4 5 5 5 6 9 10 8 9 9 9 7 7 9 10 10 9 10 9 10 11 9 10 8 7 6 7 9 11 12 14 15 15 15 15 16 19 21 23 24 28
5 7 8 7 9 10 10 10 10 9 10 11 8 6 6 7 9 11 12 11 10 8 9 10 9 10 8 8 7 6 8 11 13 12 13 14 15 15 16 18 20 21 24
8 8 9 13 17 16 12 14 14 11 9 11 10 10 8 9 10 10 10 7 9 11 9 11 10 9 9 9 9 8 6 8 10 12 13 14 15 16 16 17 18 19 20
17 17 17 17 15 15 13 15 14 13 11 10 11 15 10 10 10 9 7 7 9 10 9 8 8 9 10 10 11 10 10 8 8 9 11 13 14 15 16 16 17 18 19
Wind_Direction
277 268 257 250 242 235 236 240 239 225 231 227 217 219 226 228 238 254 288 316 307 305 289 290 287 284 284 282 285 287 279 279 276 278 276 280 270 293 291 274 272 276 269
276 281 279 261 240 238 239 240 231 218 215 209 210 215 222 223 240 271 310 318 307 284 283 282 284 279 281 283 289 295 279 285 281 266 265 283 288 295 289 285 279 271 267
265 268 271 257 238 243 242 239 220 216 211 214 221 229 226 231 266 300 312 306 284 281 284 282 279 282 287 290 287 290 286 284 276 282 296 282 289 293 291 290 284 271 264
249 251 253 248 251 243 238 222 219 220 225 231 232 227 222 263 299 313 305 282 277 280 282 281 283 288 288 283 279 279 279 267 270 289 288 292 289 294 299 291 272 276 258
245 245 251 247 245 238 236 233 225 227 230 231 228 216 251 292 302 303 284 277 279 283 287 293 288 290 287 285 278 274 260 276 279 279 287 293 293 295 286 280 263 258 239
245 252 255 246 225 229 229 225 228 232 232 226 214 229 288 291 299 291 273 277 282 285 294 292 296 291 279 280 269 263 275 277 280 283 293 288 291 280 275 263 247 217 181
246 252 246 240 231 229 229 227 227 227 220 214 216 269 288 297 301 273 273 276 278 285 291 292 294 281 274 274 267 266 267 282 272 282 284 286 276 266 267 252 237 222 192
250 252 245 236 230 227 227 228 225 217 215 215 241 286 294 298 271 269 271 277 286 287 287 290 286 285 277 275 264 265 269 271 278 284 285 278 273 258 245 236 230 200 196
259 254 242 232 229 229 228 219 212 210 212 221 243 288 295 264 265 271 279 285 288 291 289 290 286 284 276 271 267 273 262 265 284 284 273 271 256 245 231 214 213 196 178
257 249 240 235 234 230 215 205 204 203 210 233 279 268 267 271 272 270 273 280 285 286 283 282 282 276 276 269 272 265 256 280 282 272 267 267 249 242 219 204 212 199 184
242 242 238 234 221 213 209 202 200 203 225 246 258 273 277 280 277 274 276 282 282 288 285 275 273 268 256 263 264 258 258 272 271 256 265 245 231 194 180 210 216 211 191
233 229 217 207 199 192 194 196 202 214 228 239 262 277 278 275 276 267 277 277 278 286 286 277 281 276 252 248 253 256 251 259 244 241 246 228 205 173 186 201 204 203 203
222 205 190 183 183 185 190 194 218 232 226 265 278 274 261 266 273 273 282 279 280 281 274 277 291 274 253 233 241 241 245 246 229 225 223 201 185 172 180 194 202 206 207
210 194 191 189 191 193 205 221 219 246 277 277 267 257 257 263 266 272 277 278 275 273 270 277 276 263 245 231 232 233 239 229 226 221 210 178 170 177 186 192 196 200 200
201 196 188 190 199 205 203 221 241 261 269 266 257 253 254 264 267 267 281 281 274 269 272 263 270 254 243 233 215 229 226 211 210 206 205 183 178 183 189 189 194 195 196
216 211 209 209 204 197 248 265 257 261 262 261 252 250 261 260 269 265 280 289 289 269 255 253 255 257 247 234 224 228 213 211 210 208 207 195 187 186 189 190 191 192 192
208 197 197 189 224 261 268 267 261 259 266 259 259 253 245 251 257 262 274 293 302 285 244 242 255 249 238 232 227 227 216 211 210 206 208 204 199 193 194 196 199 195 194
189 189 218 260 271 277 282 269 261 256 261 259 254 245 234 236 252 257 270 278 284 269 229 237 245 245 232 219 215 219 219 219 218 209 206 210 208 204 200 202 202 202 204
228 245 269 282 290 282 269 261 262 259 254 253 248 244 234 241 246 251 257 271 282 280 249 228 244 243 228 224 214 217 212 217 219 212 207 209 212 212 210 209 207 209 207
278 286 288 287 286 279 275 263 273 253 263 268 259 251 242 232 242 252 249 254 264 265 244 242 245 243 235 225 219 212 206 207 214 216 217 215 214 213 214 216 214 211 213
280 279 285 284 289 283 286 269 275 265 273 270 266 254 246 245 250 264 250 252 258 265 261 246 250 247 238 234 220 214 206 204 209 215 218 221 217 215 216 218 219 220 220
287 291 297 305 297 291 284 291 275 278 276 283 286 258 239 232 237 258 247 247 262 274 259 249 251 243 240 238 228 215 211 210 207 209 216 221 220 218 218 217 218 220 220
4 346 316 312 317 320 296 284 285 277 281 286 285 266 239 237 246 254 256 246 252 268 268 252 248 246 235 230 222 212 210 212 211 212 212 210 212 215 215 216 216 217 218
307 307 303 310 322 310 301 291 283 275 268 271 268 258 234 240 245 247 256 256 257 265 262 250 249 238 231 224 216 206 206 201 196 198 198 202 207 208 209 211 215 217 218
287 293 286 292 309 310 297 298 294 265 257 253 255 247 247 257 264 264 263 248 242 264 251 241 240 232 225 219 215 208 202 193 194 194 198 200 203 206 208 209 210 212 216
279 285 290 288 290 298 289 289 293 286 270 263 254 229 253 258 256 264 266 248 240 245 243 237 232 224 220 219 216 215 210 203 192 189 189 190 191 196 201 205 206 207 210
Height
1452 1451 1450 1451 1452 1453 1455 1456 1458 1461 1463 1468 1474 1479 1481 1484 1485 1485 1485 1483 1480 1478 1479 1478 1475 1476 1473 1471 1472 1471 1470 1469 1467 1464 1464 1466 1464 1464 1463 1462 1463 1461 1462
1444 1446 1446 1447 1449 1450 1452 1453 1454 1456 1460 1464 1468 1471 1474 1476 1478 1480 1479 1477 1475 1474 1472 1469 1469 1468 1466 1465 1464 1464 1464 1463 1462 1459 1457 1459 1460 1459 1458 1456 1455 1455 1455
1437 1438 1439 1441 1443 1445 1447 1449 1453 1457 1459 1462 1465 1469 1471 1473 1474 1472 1469 1469 1471 1469 1465 1462 1462 1461 1458 1457 1454 1456 1455 1456 1455 1452 1451 1453 1453 1452 1450 1448 1447 1447 1448
1430 1430 1432 1435 1437 1439 1442 1445 1449 1452 1455 1458 1462 1465 1467 1467 1466 1465 1464 1467 1465 1463 1459 1456 1453 1452 1450 1448 1449 1448 1448 1448 1448 1448 1448 1448 1446 1445 1442 1441 1441 1442 1443
1425 1425 1426 1428 1430 1432 1435 1439 1443 1447 1451 1454 1456 1458 1461 1461 1458 1458 1463 1461 1459 1456 1453 1449 1446 1444 1446 1444 1444 1444 1441 1440 1442 1442 1442 1440 1439 1438 1437 1437 1438 1438 1440
1421 1422 1422 1422 1424 1427 1429 1433 1437 1441 1444 1447 1449 1453 1454 1453 1451 1455 1456 1455 1453 1451 1446 1444 1442 1441 1440 1439 1441 1439 1440 1437 1434 1435 1435 1434 1434 1433 1433 1433 1434 1436 1437
1414 1416 1417 1417 1418 1419 1422 1425 1428 1431 1436 1438 1443 1446 1446 1446 1447 1449 1449 1446 1444 1440 1438 1435 1433 1433 1433 1434 1437 1436 1435 1435 1431 1430 1429 1429 1428 1429 1429 1429 1432 1434 1435
1406 1408 1408 1409 1410 1413 1416 1420 1423 1426 1429 1434 1438 1440 1439 1442 1444 1442 1441 1440 1437 1433 1432 1430 1427 1428 1427 1429 1430 1430 1429 1429 1427 1425 1423 1423 1423 1424 1425 1426 1429 1431 1435
1397 1399 1400 1403 1407 1409 1410 1412 1417 1421 1425 1429 1434 1435 1436 1439 1438 1437 1435 1432 1430 1429 1428 1427 1423 1424 1422 1423 1423 1425 1423 1423 1422 1419 1419 1418 1418 1419 1419 1422 1425 1429 1433
1393 1394 1394 1395 1398 1402 1404 1410 1412 1417 1420 1425 1428 1431 1432 1430 1429 1427 1424 1422 1423 1421 1422 1419 1420 1420 1419 1419 1419 1419 1419 1420 1417 1415 1415 1414 1414 1414 1415 1419 1422 1426 1430
1389 1389 1392 1393 1395 1399 1401 1404 1408 1412 1416 1421 1425 1426 1426 1424 1421 1420 1417 1417 1415 1413 1413 1414 1411 1411 1413 1414 1416 1416 1415 1415 1413 1412 1411 1411 1411 1412 1414 1417 1422 1426 1430
1381 1384 1385 1389 1392 1397 1399 1403 1404 1406 1409 1412 1416 1420 1419 1417 1414 1413 1412 1411 1410 1407 1410 1410 1407 1408 1405 1406 1410 1411 1411 1410 1410 1409 1409 1409 1410 1411 1414 1418 1423 1427 1432
1377 1380 1381 1381 1389 1393 1396 1402 1403 1404 1406 1409 1412 1412 1413 1411 1410 1408 1406 1407 1405 1402 1403 1404 1405 1403 1399 1400 1405 1407 1407 1407 1407 1407 1407 1408 1410 1412 1416 1420 1425 1429 1434
1379 1379 1381 1380 1386 1390 1394 1398 1403 1406 1406 1406 1405 1405 1407 1407 1404 1402 1399 1398 1401 1399 1398 1400 1401 1397 1396 1397 1400 1402 1404 1404 1404 1405 1406 1408 1411 1413 1417 1421 1425 1430 1435
1382 1383 1378 1380 1384 1387 1389 1395 1397 1399 1401 1399 1400 1399 1401 1400 1399 1397 1397 1393 1393 1394 1393 1394 1396 1392 1392 1393 1396 1398 1400 1401 1402 1403 1405 1407 1410 1414 1417 1421 1426 1430 1434
1380 1381 1379 1378 1384 1384 1387 1389 1390 1392 1393 1391 1391 1391 1394 1395 1395 1395 1394 1390 1388 1389 1390 1390 1390 1389 1389 1391 1393 1395 1397 1398 1399 1401 1403 1406 1409 1413 1417 1421 1425 1430 1434
1377 1377 1381 1382 1384 1384 1384 1384 1381 1384 1386 1386 1388 1388 1388 1391 1390 1392 1391 1388 1386 1387 1387 1386 1387 1386 1387 1388 1390 1392 1394 1395 1397 1399 1401 1404 1408 1411 1416 1420 1424 1429 1433
1377 1378 1379 1380 1381 1380 1380 1380 1379 1378 1379 1382 1383 1383 1383 1385 1387 1387 1387 1385 1385 1384 1384 1383 1384 1384 1385 1386 1387 1389 1391 1393 1395 1397 1399 1402 1406 1409 1413 1418 1422 1426 1431
1375 1375 1375 1375 1376 1376 1376 1377 1375 1375 1375 1376 1377 1379 1378 1381 1382 1383 1382 1382 1382 1382 1381 1380 1381 1381 1382 1383 1384 1386 1388 1390 1392 1394 1397 1400 1403 1407 1411 1415 1420 1423 1429
1374 1374 1372 1373 1374 1373 1372 1372 1371 1372 1373 1373 1373 1374 1373 1376 1378 1378 1378 1378 1379 1380 1379 1378 1379 1379 1379 1380 1381 1382 1384 1386 1389 1392 1394 1397 1400 1403 1407 1411 1416 1420 1424
1374 1372 1372 1372 1372 1371 1370 1370 1369 1369 1370 1368 1368 1369 1371 1372 1373 1374 1374 1375 1377 1377 1377 1376 1376 1376 1376 1377 1378 1379 1381 1383 1386 1389 1391 1394 1397 1400 1403 1407 1412 1417 1422
1374 1373 1371 1370 1370 1368 1368 1369 1368 1366 1366 1367 1365 1366 1367 1368 1370 1371 1370 1372 1373 1373 1373 1373 1373 1373 1374 1375 1376 1377 1379 1381 1383 1385 1388 1391 1393 1396 1400 1403 1408 1412 1417
1373 1372 1371 1370 1368 1367 1367 1368 1365 1363 1364 1363 1364 1364 1365 1366 1366 1367 1367 1368 1370 1370 1370 1370 1370 1370 1371 1372 1373 1375 1376 1378 1380 1382 1384 1387 1390 1393 1396 1400 1404 1408 1412
1372 1371 1370 1369 1367 1366 1365 1363 1362 1361 1360 1361 1362 1362 1363 1363 1363 1364 1364 1365 1366 1366 1366 1366 1367 1367 1368 1370 1371 1372 1374 1375 1377 1380 1382 1384 1387 1390 1393 1397 1400 1404 1408
1370 1368 1367 1366 1364 1362 1360 1359 1357 1356 1357 1358 1358 1359 1360 1360 1360 1360 1360 1361 1362 1363 1363 1363 1364 1365 1366 1367 1369 1370 1372 1373 1375 1377 1379 1382 1384 1387 1391 1394 1397 1401 1405
1364 1363 1362 1361 1360 1358 1357 1355 1354 1353 1353 1353 1354 1355 1356 1356 1356 1357 1357 1358 1359 1359 1359 1360 1361 1362 1363 1365 1366 1368 1370 1372 1374 1376 1378 1380 1382 1385 1388 1392 1395 1398 1402